Probability
1 3 5 4 5 6 6 5 5 4 4 3 3 2 2 1 0 0 0 0 0 0 0 0 0 0 0 0 0 0 0 0 0 0 0 0 0 0 0 0 0 0 0
2 4 5 4 5 6 6 6 6 5 4 3 3 1 1 0 0 0 0 0 0 0 0 0 0 0 0 0 0 0 0 0 0 0 0 0 0 0 0 0 0 0 0
3 4 5 5 6 7 7 7 7 6 4 3 2 1 0 0 0 0 0 0 0 0 0 0 0 0 0 0 0 0 0 0 0 0 0 0 0 0 0 0 0 0 0
4 5 6 6 8 9 9 8 7 7 6 4 2 1 1 0 0 0 0 0 0 0 0 0 0 0 0 0 0 0 0 0 0 0 0 0 0 0 0 0 0 0 0
5 6 8 9 10 11 10 9 8 7 7 5 3 2 2 1 0 0 0 0 0 0 0 0 0 0 0 0 0 0 0 0 0 0 0 0 0 0 0 0 0 0 0
8 9 9 9 11 10 9 7 7 6 6 5 4 3 3 2 1 0 0 0 0 0 0 0 0 0 0 0 0 0 0 0 0 0 0 0 0 0 0 0 0 0 0
10 10 9 9 10 10 7 4 3 3 4 4 4 3 3 3 2 1 0 0 0 0 0 0 0 0 0 0 0 0 0 0 0 0 0 0 0 0 0 0 0 0 0
10 10 10 9 10 10 7 3 2 3 4 4 4 3 3 3 3 1 0 0 0 0 0 0 0 0 0 1 1 0 0 0 0 0 0 0 0 0 0 0 0 0 0
7 8 9 9 10 9 6 4 3 4 5 5 4 3 3 3 3 2 1 1 0 0 0 0 0 0 0 1 1 0 0 0 0 0 0 0 0 0 0 0 0 0 0
6 7 8 9 7 5 4 3 4 5 6 6 5 4 3 3 3 3 2 1 0 0 1 0 0 0 0 1 1 0 0 0 0 0 1 1 1 0 0 0 0 0 0
7 8 9 8 5 3 3 5 7 7 7 7 6 4 4 4 4 4 3 1 0 1 1 0 0 0 0 0 0 0 0 1 1 1 2 2 1 1 0 0 0 0 0
12 12 11 9 6 5 7 9 10 10 9 8 7 6 6 7 7 5 4 2 1 1 1 0 1 1 1 1 1 1 1 2 2 3 3 2 1 0 0 0 0 0 0
16 15 13 11 9 9 11 13 14 12 11 11 11 10 9 9 9 8 7 5 3 2 1 0 1 2 2 2 2 2 3 3 3 3 3 2 1 0 0 0 0 0 0
16 17 15 13 11 11 13 15 15 14 15 16 15 13 11 11 11 11 9 6 3 2 1 0 1 2 2 3 4 4 3 3 3 3 3 2 1 0 0 0 0 0 0
17 18 18 17 15 15 18 19 17 17 20 21 19 15 13 12 12 12 10 5 3 1 0 0 0 1 1 2 3 4 3 3 3 3 3 3 1 0 0 0 0 0 0
22 24 25 25 23 23 27 28 25 22 24 24 19 14 13 13 12 12 9 5 2 1 0 0 0 1 1 1 1 2 3 3 3 3 3 3 2 1 1 0 0 0 0
28 30 33 32 28 28 33 34 31 27 27 24 18 14 14 13 12 10 8 4 2 1 1 1 1 1 1 0 0 1 2 3 3 3 3 3 3 2 1 0 0 0 0
29 30 33 32 29 29 33 35 34 32 29 24 18 14 15 14 12 9 7 4 2 2 2 2 2 2 1 1 1 1 2 3 3 3 3 3 3 1 1 0 0 0 0
27 27 30 32 33 35 37 38 37 35 31 25 19 17 16 14 10 7 5 3 2 1 1 2 2 2 2 2 2 2 3 3 3 3 3 3 2 1 0 0 0 0 0
30 30 32 37 40 43 44 42 39 35 29 23 19 17 15 11 6 4 4 3 2 1 1 1 1 2 3 2 2 2 2 2 3 3 2 1 1 0 0 0 0 0 0
41 40 41 43 45 46 47 44 37 30 25 20 17 16 14 9 4 2 3 3 3 1 0 0 1 2 2 1 1 1 1 1 1 2 1 0 0 0 0 0 0 0 0
48 48 48 48 47 45 45 42 33 25 22 20 17 16 15 11 6 3 3 3 2 1 0 0 1 2 2 1 0 0 0 0 0 0 0 0 0 0 0 0 0 0 0
45 48 49 49 46 43 40 37 29 23 21 21 19 16 15 13 10 6 3 3 1 0 0 0 1 1 1 0 0 0 0 0 0 0 0 0 0 0 0 0 0 0 0
41 43 47 46 40 36 35 32 26 23 23 22 19 15 13 12 10 6 3 2 1 0 0 0 0 0 0 0 0 0 0 0 0 0 0 0 0 0 0 0 0 0 0
38 39 40 39 34 31 30 29 25 25 25 23 18 14 12 11 8 5 2 1 0 0 0 0 0 0 0 0 0 0 0 0 0 0 0 0 0 0 0 0 0 0 0
35 35 35 34 31 28 28 28 25 25 25 24 20 15 12 10 7 4 1 0 0 0 0 0 0 0 0 0 0 0 0 0 0 0 0 0 0 0 0 0 0 0 0
Wind_Speed
5 4 5 5 5 4 4 4 4 3 3 2 2 1 1 0 0 1 1 1 2 2 2 1 1 1 1 1 1 1 1 1 1 1 1 1 0 0 1 1 1 1 2
5 5 5 5 6 5 5 4 4 4 3 2 2 2 2 1 1 0 0 1 1 1 2 2 1 1 1 1 1 1 1 1 1 2 1 0 1 1 0 0 0 1 1
9 8 7 6 6 7 7 6 5 4 3 3 2 2 2 1 1 1 1 1 0 1 1 1 1 1 1 1 2 2 2 2 1 1 2 2 2 1 1 1 1 2 2
9 8 8 8 8 8 6 5 5 4 3 4 3 3 2 2 1 1 0 1 1 0 0 1 1 1 1 1 2 2 2 2 2 1 1 1 2 2 0 1 2 2 2
11 10 10 9 8 7 6 5 4 4 3 3 4 3 2 2 1 1 0 1 1 1 0 0 0 0 1 1 1 1 2 2 2 2 2 1 1 1 2 1 1 2 2
10 9 8 7 6 5 5 4 4 4 3 4 4 4 4 3 2 1 1 0 1 1 1 0 0 0 0 0 1 1 1 1 2 1 2 2 2 2 2 2 1 1 2
9 9 8 8 7 7 6 5 5 4 4 4 4 4 4 4 3 3 2 1 0 1 1 1 0 0 0 1 1 1 1 1 1 1 1 2 2 2 3 3 2 1 1
9 10 11 10 9 9 8 7 6 5 4 4 3 3 3 2 2 2 2 2 1 0 0 1 1 1 1 1 1 1 1 1 1 1 1 1 1 2 3 3 4 2 1
10 11 10 10 10 9 9 8 7 6 5 4 4 3 3 3 3 2 2 1 1 1 2 2 2 2 2 2 2 2 1 2 1 0 1 1 1 1 2 2 3 4 3
9 9 10 10 9 9 7 7 7 7 5 5 4 3 3 3 2 2 2 2 2 2 3 3 3 3 3 3 3 2 2 3 2 1 2 1 1 1 1 2 2 2 3
10 10 9 9 8 7 7 7 7 6 5 5 4 4 3 3 3 2 2 2 2 3 3 3 3 3 3 3 3 3 3 3 3 2 3 2 1 1 1 2 2 2 3
7 8 8 8 8 8 8 8 7 7 6 5 5 4 4 3 3 3 2 3 3 3 3 3 3 3 3 3 4 3 3 3 3 3 3 3 3 3 2 2 3 3 3
5 6 7 8 8 8 8 8 8 8 7 6 6 5 4 4 4 3 3 3 4 4 3 4 4 4 3 4 4 4 4 4 4 3 3 3 4 4 3 3 3 3 4
6 7 7 7 7 8 8 8 8 8 8 7 7 6 5 5 4 4 4 4 4 4 4 4 4 4 4 4 4 4 4 5 4 4 4 3 3 3 3 3 4 5 5
7 8 8 7 7 7 7 7 7 8 8 8 7 6 5 4 4 4 4 5 5 4 4 5 4 3 3 3 3 4 4 4 4 4 4 4 5 5 4 4 5 6 5
8 8 8 8 9 9 9 9 9 8 8 9 8 6 5 5 4 4 5 5 5 4 4 4 4 4 3 4 5 4 4 4 4 4 3 4 5 6 7 8 7 7 6
8 9 9 9 9 10 10 10 9 9 9 9 8 7 7 6 5 5 5 5 4 4 4 4 4 4 3 5 6 6 4 4 3 3 3 3 4 5 5 7 8 8 7
7 8 8 8 8 8 8 8 8 9 9 8 8 7 7 6 6 5 5 4 4 4 4 3 3 3 3 5 7 8 6 5 4 4 3 4 3 3 5 6 6 5 4
6 6 7 8 8 8 9 9 9 8 8 8 8 8 8 7 7 6 5 4 4 4 3 3 3 3 2 4 6 6 4 4 4 4 4 4 4 4 6 6 6 5 4
4 5 5 6 8 8 10 10 10 10 10 9 8 8 8 8 8 7 5 4 4 4 4 3 2 2 2 3 5 6 4 4 3 3 3 5 4 4 5 5 5 5 2
3 6 7 7 7 8 10 10 10 10 9 8 8 8 8 8 7 6 5 5 5 4 3 3 2 2 1 2 4 5 3 3 3 2 2 2 4 5 5 4 4 4 3
4 6 6 6 6 8 9 9 9 9 8 9 9 9 8 7 7 7 6 6 6 5 3 2 1 1 1 1 2 4 4 4 3 2 1 1 3 4 4 3 4 5 4
3 5 6 6 6 7 8 9 7 8 10 9 9 8 8 7 7 7 7 6 5 4 4 3 2 1 1 1 2 3 4 4 2 2 2 2 4 4 4 4 5 4 3
3 4 7 6 5 5 6 6 8 9 10 10 9 8 8 7 7 6 6 6 5 5 4 4 3 2 1 1 1 2 2 3 2 2 3 3 4 4 3 3 2 2 2
2 3 5 6 5 5 5 5 7 10 10 9 8 8 7 7 6 5 4 6 5 6 6 5 4 4 4 4 5 5 3 3 3 3 2 2 2 2 2 1 1 1 2
3 3 3 4 4 5 5 5 7 8 9 8 7 6 6 6 6 5 3 2 2 5 6 6 5 4 4 5 7 7 6 5 6 4 2 2 1 2 2 2 1 1 1
Wind_Direction
209 185 176 166 157 162 174 179 169 165 146 134 141 144 177 215 234 240 232 219 211 190 176 190 184 172 191 214 194 166 155 163 131 94 37 12 30 165 234 231 213 224 229
197 185 175 170 172 178 189 191 189 180 172 158 156 156 151 170 187 230 282 221 203 196 189 184 197 189 186 191 174 161 156 185 152 140 130 343 348 360 355 54 161 149 112
197 192 185 185 182 189 196 198 195 188 179 161 126 98 74 53 51 27 326 317 224 181 175 187 197 210 194 209 207 189 181 194 202 168 154 163 217 301 10 39 70 74 72
196 191 188 189 193 198 194 192 186 181 175 164 161 162 168 180 204 197 223 348 358 328 155 196 205 211 207 222 227 194 190 184 207 208 203 185 162 167 202 30 59 71 65
195 192 194 195 193 187 182 182 171 172 169 165 165 160 162 171 149 111 58 1 359 356 327 191 197 213 213 208 201 176 180 189 192 189 179 177 146 159 170 185 94 70 54
193 192 188 180 178 172 170 167 165 176 172 165 160 162 165 165 155 157 168 310 350 349 348 30 90 127 170 201 195 174 171 182 179 182 177 168 160 176 171 180 168 113 71
181 182 178 181 179 176 176 172 171 180 174 163 166 174 174 173 181 185 183 184 300 333 324 358 64 65 105 101 114 130 152 164 164 187 200 189 182 162 152 149 151 136 102
176 186 189 185 183 182 179 173 173 176 170 166 170 165 162 164 174 176 165 171 186 242 330 71 68 62 69 83 87 90 97 98 127 168 180 176 189 169 162 159 152 147 116
183 188 187 184 182 182 182 176 172 172 174 172 161 155 154 152 155 156 148 145 140 114 78 76 65 59 63 67 75 75 67 77 78 69 147 171 192 169 168 160 167 162 159
181 185 186 184 182 183 179 170 171 175 173 165 162 157 152 151 145 131 127 121 106 92 85 74 69 65 63 65 73 69 61 72 59 68 80 85 93 114 135 159 158 155 147
184 186 186 180 175 170 166 166 166 161 160 161 156 149 145 142 131 126 126 117 103 101 95 82 72 71 68 67 74 66 63 71 56 52 70 64 69 93 107 120 123 127 129
181 182 178 167 166 168 169 170 167 166 168 161 153 151 143 137 131 130 124 113 104 93 95 94 82 71 68 68 74 72 67 68 61 57 67 60 70 74 80 99 108 118 127
173 171 165 167 171 172 173 173 170 170 162 152 148 144 143 141 140 134 121 113 109 99 86 84 84 77 72 69 69 75 72 69 64 64 73 66 78 77 77 92 102 106 112
174 175 173 174 174 174 174 173 170 165 157 152 151 152 159 158 147 133 120 111 107 101 94 87 83 81 77 75 75 76 75 70 62 60 68 67 78 88 94 101 107 112 110
178 182 182 179 173 171 173 172 167 161 156 154 158 164 161 152 136 125 120 114 107 104 100 92 81 76 79 81 88 85 83 76 69 59 57 67 82 87 95 113 120 122 120
191 187 184 180 178 176 176 172 168 164 157 158 162 158 150 144 136 131 124 114 105 100 93 90 89 78 73 89 95 101 92 84 80 71 55 61 63 78 86 97 107 122 133
193 188 188 187 183 178 174 174 167 157 158 159 159 158 157 152 146 141 131 123 116 107 97 92 91 83 83 96 98 98 97 87 76 72 65 68 62 71 88 89 86 85 98
196 194 187 183 179 170 167 161 155 158 159 157 156 157 155 150 143 140 138 131 122 116 110 104 99 94 97 104 103 98 87 80 66 60 67 79 67 75 98 97 87 77 71
199 198 186 174 164 161 157 151 158 160 158 161 161 161 159 154 151 148 146 140 131 122 118 119 113 107 102 109 112 106 95 85 68 57 60 72 75 81 103 103 99 88 71
171 170 161 150 155 156 147 150 161 164 171 170 167 162 158 158 160 159 151 139 137 135 129 115 107 113 117 128 123 116 110 100 84 59 52 58 73 87 106 113 115 108 91
157 154 152 156 159 154 151 157 167 180 174 160 158 156 156 159 161 155 148 141 134 127 122 114 96 95 110 138 140 131 122 127 113 87 56 49 68 84 98 111 120 134 125
125 139 144 152 152 155 157 164 177 172 156 155 161 163 161 161 164 157 151 147 143 140 140 134 111 79 95 133 158 150 138 138 128 130 118 87 87 88 97 106 121 122 115
133 139 140 139 148 159 162 172 173 157 155 160 166 164 162 162 160 160 158 154 154 156 165 168 172 182 152 152 160 158 150 143 131 143 145 128 110 97 94 103 119 122 120
142 141 139 144 156 164 170 172 162 158 159 164 166 165 163 162 163 164 164 165 170 172 177 183 191 189 183 190 173 158 150 141 126 116 107 101 95 85 91 96 102 108 126
109 136 147 154 158 159 164 160 160 159 162 166 166 168 169 165 168 165 169 176 185 186 182 190 188 187 203 216 193 175 176 172 164 134 103 91 91 90 92 100 100 106 123
130 138 145 148 156 163 165 164 163 163 160 161 165 172 172 168 167 161 147 115 162 177 185 184 181 200 203 179 176 180 179 171 154 135 137 150 159 170 171 166 160 162 171